TimeCDT,TemperatureF,Dew PointF,Humidity,Sea Level PressureIn,VisibilityMPH,Wind Direction,Wind SpeedMPH,Gust SpeedMPH,PrecipitationIn,Events,Conditions,WindDirDegrees,DateUTC
12:53 AM,66.0,63.0,90,29.80,10.0,ENE,9.2,-,N/A,Thunderstorm,Clear,60,2013-05-21 05:53:00
1:28 AM,66.2,62.6,88,29.78,10.0,North,11.5,-,N/A,,Partly Cloudy,10,2013-05-21 06:28:00
1:53 AM,66.0,63.0,90,29.79,10.0,North,6.9,-,N/A,,Clear,350,2013-05-21 06:53:00
2:04 AM,66.2,62.6,88,29.79,10.0,NE,6.9,-,N/A,Thunderstorm,Partly Cloudy,40,2013-05-21 07:04:00
2:53 AM,66.9,63.0,87,29.81,10.0,WSW,10.4,-,0.13,Rain-Thunderstorm,Light Thunderstorms and Rain,250,2013-05-21 07:53:00
3:05 AM,66.2,62.6,88,29.85,1.8,SSW,16.1,27.6,0.13,Rain-Thunderstorm,Heavy Thunderstorms and Rain,210,2013-05-21 08:05:00
3:16 AM,66.2,62.6,88,29.88,3.0,WSW,18.4,23.0,0.32,Rain-Thunderstorm,Thunderstorms and Rain,250,2013-05-21 08:16:00
3:53 AM,64.9,60.1,84,29.88,10.0,SSW,8.1,-,0.39,Rain-Thunderstorm,Light Thunderstorms and Rain,210,2013-05-21 08:53:00
4:29 AM,64.4,60.8,88,29.80,10.0,SE,3.5,-,0.02,,Scattered Clouds,140,2013-05-21 09:29:00
4:53 AM,64.0,61.0,90,29.77,10.0,SE,3.5,-,0.02,,Scattered Clouds,130,2013-05-21 09:53:00
5:53 AM,64.0,59.0,84,29.79,10.0,Calm,Calm,-,N/A,,Mostly Cloudy,0,2013-05-21 10:53:00
6:16 AM,64.4,60.8,88,29.86,10.0,NW,13.8,21.9,N/A,Thunderstorm,Overcast,320,2013-05-21 11:16:00
6:30 AM,64.4,60.8,88,29.89,10.0,WNW,21.9,25.3,0.00,Rain-Thunderstorm,Light Thunderstorms and Rain,290,2013-05-21 11:30:00
6:53 AM,64.0,61.0,90,29.85,2.0,Calm,Calm,-,0.20,Rain-Thunderstorm,Heavy Thunderstorms and Rain,0,2013-05-21 11:53:00
7:05 AM,64.4,60.8,88,29.86,6.0,Variable,3.5,-,0.06,Rain-Thunderstorm,Rain,0,2013-05-21 12:05:00
7:53 AM,64.0,61.0,90,29.85,10.0,South,6.9,-,0.19,Rain,Light Rain,180,2013-05-21 12:53:00
8:05 AM,64.4,60.8,88,29.87,10.0,SW,5.8,-,0.00,Rain-Thunderstorm,Light Rain,230,2013-05-21 13:05:00
8:20 AM,64.4,60.8,88,29.86,7.0,Calm,Calm,-,0.03,Rain,Light Rain,0,2013-05-21 13:20:00
8:44 AM,64.4,60.8,88,29.85,10.0,East,8.1,-,0.03,Rain,Light Rain,90,2013-05-21 13:44:00
8:53 AM,64.0,61.0,90,29.86,10.0,ENE,5.8,-,0.03,Rain,Light Rain,70,2013-05-21 13:53:00
9:40 AM,64.4,62.6,94,29.92,2.5,West,8.1,-,0.09,Rain-Thunderstorm,Heavy Rain,260,2013-05-21 14:40:00
9:53 AM,64.0,62.1,93,29.91,3.0,West,6.9,-,0.13,Rain-Thunderstorm,Rain,270,2013-05-21 14:53:00
9:59 AM,64.4,62.6,94,29.93,4.0,West,10.4,-,0.01,Rain-Thunderstorm,Light Rain,280,2013-05-21 14:59:00
10:53 AM,64.0,62.1,93,29.88,6.0,East,5.8,-,0.11,Rain-Thunderstorm,Light Thunderstorms and Rain,100,2013-05-21 15:53:00
11:12 AM,64.4,62.6,94,29.88,5.0,East,6.9,-,0.03,Rain-Thunderstorm,Light Thunderstorms and Rain,90,2013-05-21 16:12:00
11:48 AM,64.4,62.6,94,29.90,5.0,East,5.8,-,0.11,Rain,Light Rain,80,2013-05-21 16:48:00
11:53 AM,64.0,62.1,93,29.91,6.0,ESE,6.9,-,0.12,Rain-Thunderstorm,Light Rain,110,2013-05-21 16:53:00
12:00 PM,64.4,62.6,94,29.93,7.0,SE,3.5,-,0.01,Rain-Thunderstorm,Light Rain,130,2013-05-21 17:00:00
12:22 PM,64.4,62.6,94,29.95,3.0,Calm,Calm,-,0.05,Rain,Light Rain,0,2013-05-21 17:22:00
12:33 PM,64.4,62.6,94,29.95,3.0,SW,4.6,-,0.08,Rain-Thunderstorm,Thunderstorms and Rain,230,2013-05-21 17:33:00
12:39 PM,64.4,62.6,94,29.94,2.5,Calm,Calm,-,0.10,Rain-Thunderstorm,Thunderstorms and Rain,0,2013-05-21 17:39:00
12:49 PM,64.4,62.6,94,29.94,4.0,Calm,Calm,-,0.12,Rain-Thunderstorm,Rain,0,2013-05-21 17:49:00
12:53 PM,64.0,62.1,93,29.92,4.0,ENE,3.5,-,0.13,Rain-Thunderstorm,Rain,60,2013-05-21 17:53:00
1:02 PM,64.4,62.6,94,29.92,5.0,East,3.5,-,0.03,Rain,Rain,100,2013-05-21 18:02:00
1:15 PM,64.4,62.6,94,29.90,5.0,East,6.9,-,0.07,Rain,Rain,90,2013-05-21 18:15:00
1:53 PM,64.9,62.1,90,29.78,8.0,East,15.0,21.9,0.13,Rain,Light Rain,80,2013-05-21 18:53:00
2:53 PM,68.0,62.1,81,29.75,10.0,East,11.5,-,0.01,,Overcast,100,2013-05-21 19:53:00
3:17 PM,68.0,62.6,83,29.83,10.0,Calm,Calm,-,N/A,Thunderstorm,Mostly Cloudy,0,2013-05-21 20:17:00
3:48 PM,66.2,62.6,88,29.89,1.8,NW,20.7,-,0.06,Rain-Thunderstorm,Thunderstorms and Rain,310,2013-05-21 20:48:00
3:53 PM,66.0,63.0,90,29.92,1.0,West,13.8,-,0.18,Rain-Thunderstorm,Heavy Thunderstorms and Rain,270,2013-05-21 20:53:00
4:00 PM,66.2,62.6,88,29.94,2.0,West,12.7,-,0.04,Rain-Thunderstorm,Thunderstorms and Rain,260,2013-05-21 21:00:00
4:09 PM,66.2,62.6,88,29.92,3.0,West,13.8,-,0.07,Rain-Thunderstorm,Thunderstorms and Rain,280,2013-05-21 21:09:00
4:13 PM,64.4,62.6,94,29.92,2.0,West,13.8,-,0.08,Rain-Thunderstorm,Thunderstorms and Rain,280,2013-05-21 21:13:00
4:53 PM,64.0,61.0,90,29.91,5.0,WNW,11.5,-,0.30,Rain,Rain,290,2013-05-21 21:53:00
5:01 PM,64.4,60.8,88,29.93,4.0,WNW,10.4,-,0.03,Rain,Rain,300,2013-05-21 22:01:00
5:26 PM,64.4,60.8,88,29.89,4.0,NNE,5.8,-,0.15,Rain-Thunderstorm,Rain,30,2013-05-21 22:26:00
5:53 PM,64.0,61.0,90,29.80,5.0,ENE,15.0,-,0.26,Rain-Thunderstorm,Thunderstorms and Rain,70,2013-05-21 22:53:00
6:19 PM,64.4,60.8,88,29.75,7.0,East,17.3,23.0,0.08,Rain,Light Rain,80,2013-05-21 23:19:00
6:53 PM,64.0,60.1,87,29.72,10.0,SE,10.4,20.7,0.09,Rain,Light Rain,130,2013-05-21 23:53:00
7:53 PM,64.0,57.9,80,29.69,10.0,Variable,3.5,-,0.01,,Clear,0,2013-05-22 00:53:00
8:53 PM,63.0,59.0,87,29.73,10.0,NNE,6.9,-,N/A,,Clear,20,2013-05-22 01:53:00
9:53 PM,64.0,60.1,87,29.80,10.0,NW,8.1,-,N/A,,Overcast,320,2013-05-22 02:53:00
10:12 PM,64.4,60.8,88,29.82,10.0,WNW,6.9,-,N/A,,Overcast,290,2013-05-22 03:12:00
10:53 PM,63.0,60.1,90,29.84,6.0,WNW,8.1,-,0.01,Rain,Light Rain,290,2013-05-22 03:53:00
11:09 PM,62.6,60.8,94,29.85,5.0,WNW,8.1,-,0.01,Rain,Light Rain,290,2013-05-22 04:09:00
11:22 PM,62.6,60.8,94,29.85,10.0,WNW,8.1,-,0.01,Rain,Light Rain,290,2013-05-22 04:22:00
11:31 PM,62.6,60.8,94,29.85,10.0,WNW,5.8,-,0.02,Rain,Light Rain,290,2013-05-22 04:31:00
11:43 PM,62.6,60.8,94,29.85,10.0,West,8.1,-,0.02,,Overcast,280,2013-05-22 04:43:00
11:53 PM,63.0,60.1,90,29.84,10.0,West,5.8,-,0.02,,Overcast,270,2013-05-22 04:53:00